Content
SEND FEEDBACK

Daily
Averages
Monthly
Summary
United States of America

BALDWIN, FLORIDA


Home > North America > United States > Florida
Elevation: 89 feet     Latitude: 30 13N     Longitude: 081 52W

WEATHER
 
SELECT A DAY
Number of Records: 127,815;   Date Range: 10/16/00 - 7/26/14
 
SHARE

PRINT THIS DATA

[ ← Previous Day ]
WEATHER ALMANAC - JANUARY 3, 2013
[ Next Day → ]
[ °C ]   °F
Weather ElementAverageHighLow
Temperature55.1 °F62.6 °F (12:35 am)48.2 °F (7:50 pm)
Dewpoint54.9 °F62.6 °F (12:35 am)46.4 °F (8:15 pm)
Humidity99.2 %100 % (12:35 am)93 % (8:15 pm)
Barometer30.15 in30.26 in (9:35 pm)30.07 in (2:35 am)
Wind Speed4.1 mph11.5 mph (10:50 am)
Weather ElementAverage
Visibility6.3 mi
Wind DirectionE (94 °)

Weather ElementTotal
Precipitation---
Heating Degree Days9.6 (Base 65)
Growing Degree Days5.4 (Base 50)
Averaged from 43 records on January 3, 2013
WEATHER CONDITIONS BREAKOUT
WIND DIRECTION BREAKOUT
WEATHER BY HOUR - JANUARY 3, 2013
[ °C ]   °F
Local TimeTemperatureDewpointHumidityBarometerVisibilityWind DirectionWind SpeedGust SpeedPrecipitationEventsConditions
12:35 AM62.6 °F62.6 °F100 %30.08 in3.0 miCalmOvercast
12:55 AM60.8 °F60.8 °F100 %30.09 in1.2 miNNW (330°)8.1 mphRainLight Rain
1:15 AM60.8 °F60.8 °F100 %30.08 in1.0 miNorth (350°)6.9 mphRainLight Rain
1:35 AM59.0 °F59.0 °F100 %30.08 in1.5 miNorth (350°)6.9 mphRainLight Rain
1:55 AM59.0 °F59.0 °F100 %30.08 in2.5 miNorth (360°)5.8 mphRainLight Rain
2:15 AM59.0 °F59.0 °F100 %30.08 in4.0 miCalmOvercast
2:35 AM59.0 °F59.0 °F100 %30.07 in10.0 miCalmOvercast
2:55 AM59.0 °F59.0 °F100 %30.07 in10.0 miCalmOvercast
3:15 AM59.0 °F59.0 °F100 %30.08 in10.0 miCalmOvercast
3:35 AM59.0 °F59.0 °F100 %30.07 in10.0 miCalmOvercast
3:55 AM59.0 °F59.0 °F100 %30.08 in9.0 miNNE (30°)4.6 mphOvercast
4:15 AM59.0 °F59.0 °F100 %30.08 in7.0 miCalmOvercast
4:35 AM57.2 °F57.2 °F100 %30.08 in5.0 miNNE (30°)4.6 mphOvercast
4:55 AM57.2 °F57.2 °F100 %30.08 in5.0 miNNE (20°)5.8 mphOvercast
5:15 AM57.2 °F57.2 °F100 %30.08 in7.0 miCalmOvercast
5:35 AM57.2 °F57.2 °F100 %30.09 in6.0 miNNE (20°)6.9 mphOvercast
5:55 AM57.2 °F57.2 °F100 %30.10 in5.0 miCalmOvercast
6:15 AM57.2 °F57.2 °F100 %30.10 in5.0 miNNE (20°)9.2 mphOvercast
6:35 AM57.2 °F57.2 °F100 %30.10 in4.0 miNorth (10°)5.8 mphOvercast
6:50 AM57.2 °F57.2 °F100 %30.10 in4.0 miCalmOvercast
7:50 AM57.2 °F57.2 °F100 %30.13 in6.0 miNNE (20°)9.2 mphOvercast
8:50 AM57.2 °F57.2 °F100 %30.15 in7.0 miNNE (20°)9.2 mphOvercast
9:50 AM57.2 °F57.2 °F100 %30.15 in10.0 miNNE (20°)5.8 mphOvercast
10:50 AM59.0 °F57.2 °F94 %30.17 in10.0 miNorth (360°)11.5 mphOvercast
11:26 AM57.2 °F57.2 °F100 %30.18 in2.0 miNorthRainLight Rain
11:50 AM57.2 °F57.2 °F100 %30.17 in2.0 miNorthRainLight Rain
12:50 PM57.2 °F57.2 °F100 %30.15 in7.0 miNorthOvercast
1:50 PM57.2 °F57.2 °F100 %30.14 in7.0 miNorth (10°)8.1 mphOvercast
2:50 PM57.2 °F55.4 °F94 %30.14 in2.0 miNW (320°)5.8 mphRainLight Rain
5:50 PM53.6 °F53.6 °F100 %30.18 in1.5 miNorth (350°)11.5 mphRainLight Rain
7:50 PM48.2 °F48.2 °F100 %30.22 in4.0 miNorth (350°)9.2 mphRainLight Rain
8:15 PM48.2 °F46.4 °F93 %30.24 in10.0 miNorth (350°)9.2 mphOvercast
8:35 PM48.2 °F46.4 °F93 %30.24 in10.0 miCalmRainLight Rain
8:55 PM48.2 °F46.4 °F93 %30.24 in10.0 miNNE (20°)3.5 mphOvercast
9:15 PM48.2 °F48.2 °F100 %30.25 in10.0 miCalmOvercast
9:35 PM48.2 °F48.2 °F100 %30.26 in10.0 miNNW (340°)5.8 mphOvercast
9:55 PM48.2 °F48.2 °F100 %30.26 in7.0 miCalmOvercast
10:15 PM48.2 °F48.2 °F100 %30.26 in10.0 miCalmOvercast
10:35 PM48.2 °F48.2 °F100 %30.26 in2.0 miNorth (10°)4.6 mphRainLight Rain
10:55 PM48.2 °F48.2 °F100 %30.25 in4.0 miCalmRainLight Rain
11:15 PM48.2 °F48.2 °F100 %30.25 in10.0 miCalmOvercast
11:35 PM48.2 °F48.2 °F100 %30.26 in10.0 miCalmMostly Cloudy
11:55 PM48.2 °F48.2 °F100 %30.24 in10.0 miNorth (350°)6.9 mphOvercast
Hourly data recorded from KVQQ, located miles away from Baldwin, Florida







STORIES FROM OUR PARTNERS